TimeMST,TemperatureF,Dew PointF,Humidity,Sea Level PressureIn,VisibilityMPH,Wind Direction,Wind SpeedMPH,Gust SpeedMPH,PrecipitationIn,Events,Conditions,WindDirDegrees,DateUTC
12:53 AM,19.0,9.0,65,30.34,10.0,ENE,23.0,31.1,N/A,,Clear,60,2013-01-23 07:53:00
1:53 AM,19.9,9.0,62,30.30,10.0,ENE,26.5,32.2,N/A,,Clear,60,2013-01-23 08:53:00
2:53 AM,19.0,9.0,65,30.33,10.0,NE,24.2,29.9,N/A,,Clear,50,2013-01-23 09:53:00
3:53 AM,19.0,10.0,68,30.32,10.0,NE,21.9,32.2,N/A,,Clear,50,2013-01-23 10:53:00
4:53 AM,19.0,10.0,68,30.32,10.0,NE,23.0,-,N/A,,Clear,50,2013-01-23 11:53:00
5:53 AM,19.0,10.0,68,30.33,10.0,NE,21.9,-,N/A,,Clear,50,2013-01-23 12:53:00
6:53 AM,17.1,9.0,71,30.32,10.0,NE,18.4,28.8,N/A,,Clear,50,2013-01-23 13:53:00
7:53 AM,17.1,9.0,71,30.34,10.0,NE,18.4,-,N/A,,Clear,50,2013-01-23 14:53:00
8:53 AM,18.0,10.0,71,30.32,10.0,NE,21.9,28.8,N/A,,Clear,50,2013-01-23 15:53:00
9:53 AM,21.0,10.9,65,30.31,10.0,NE,24.2,-,N/A,,Clear,50,2013-01-23 16:53:00
10:53 AM,21.9,12.0,66,30.34,10.0,NE,21.9,-,N/A,,Clear,50,2013-01-23 17:53:00
11:53 AM,24.1,15.1,69,30.33,10.0,NE,16.1,21.9,N/A,,Clear,40,2013-01-23 18:53:00
12:53 PM,26.1,17.1,69,30.27,10.0,NE,23.0,-,N/A,,Clear,50,2013-01-23 19:53:00
1:53 PM,28.9,19.0,67,30.26,10.0,NE,16.1,23.0,N/A,,Clear,40,2013-01-23 20:53:00
2:53 PM,30.0,19.9,66,30.25,10.0,NE,19.6,-,N/A,,Clear,40,2013-01-23 21:53:00
3:53 PM,30.9,19.9,64,30.24,10.0,NE,17.3,-,N/A,,Clear,50,2013-01-23 22:53:00
4:53 PM,28.9,21.0,72,30.22,10.0,ENE,13.8,-,N/A,,Clear,70,2013-01-23 23:53:00
5:53 PM,28.0,21.0,75,30.23,10.0,NE,17.3,-,N/A,,Clear,40,2013-01-24 00:53:00
6:53 PM,28.0,19.9,72,30.23,10.0,NE,18.4,-,N/A,,Scattered Clouds,40,2013-01-24 01:53:00
7:53 PM,28.0,19.9,72,30.22,10.0,NNE,24.2,-,N/A,,Partly Cloudy,30,2013-01-24 02:53:00
8:53 PM,28.0,19.9,72,30.25,10.0,NE,19.6,-,N/A,,Partly Cloudy,40,2013-01-24 03:53:00
9:53 PM,27.0,19.0,72,30.23,10.0,NE,17.3,-,N/A,,Partly Cloudy,40,2013-01-24 04:53:00
10:53 PM,28.9,19.0,67,30.23,10.0,NE,17.3,24.2,N/A,,Scattered Clouds,40,2013-01-24 05:53:00
11:53 PM,28.0,19.0,69,30.22,10.0,NE,19.6,-,N/A,,Overcast,40,2013-01-24 06:53:00